Location: Madingley
(52.2167°N, 0.0500°E)
Time: 11:34:10
(UTC+00:00)

Cosmos 1898 Rocket - Pass Details

Date: 15 May 2026
Orbit: 750 x 778 km, 74.0° (Epoch: 6 June)

Event Time Altitude Azimuth Distance (km) Brightness Sun altitude
Rises 22:54:39 0° 333° (NNW) 3,217 8.3 -17.5°
Reaches altitude 10° 22:57:01 10° 332° (NNW) 2,291 7.2 -17.6°
Maximum altitude 23:02:11 73° 248° (WSW) 797 3.5 -17.8°
Enters shadow 23:04:34 33° 171° (S) 1,269 4.1 -17.9°
